RH
6 7 7 8 8 9 10 7 4 8 36 40 40 34 43 43 41 50 100 100 100 100 100 100 100 96 85 85 78 79 54 86 100 97 83 40 40 44 37 38 24 26 32 21 23
7 7 7 8 8 9 9 10 8 4 13 35 37 39 45 54 45 44 45 100 100 100 100 100 97 94 97 98 86 93 97 100 100 86 88 61 51 45 36 36 24 29 31 35 22
7 7 7 7 8 8 9 10 10 8 6 24 22 44 47 60 65 55 46 75 100 100 100 100 100 100 100 95 100 99 100 100 100 92 77 79 68 65 52 57 69 72 59 51 48
7 7 8 7 7 8 8 9 10 10 9 7 18 33 41 52 78 78 52 64 67 97 100 100 100 100 100 100 95 92 100 100 100 94 85 92 93 69 65 60 65 66 54 52 48
7 7 7 7 7 7 8 8 10 11 10 9 13 29 56 60 80 81 77 61 57 61 80 100 100 100 100 100 100 100 99 100 100 100 98 94 95 85 78 72 69 64 59 52 44
8 7 6 7 7 7 7 8 8 10 11 10 10 21 28 61 77 84 95 88 64 62 68 74 100 100 100 100 100 100 100 100 100 100 100 100 99 84 80 82 64 58 57 52 42
6 8 7 5 7 8 8 8 9 9 11 12 9 10 14 60 100 99 95 100 94 76 59 66 73 99 100 100 100 100 100 100 100 100 100 100 100 92 97 80 79 75 72 60 55
5 5 4 4 3 6 8 9 11 10 10 11 12 8 21 28 100 100 92 100 96 98 79 55 58 59 61 86 100 100 100 100 100 100 100 100 100 100 86 80 85 86 97 75 55
4 3 2 2 2 3 6 9 12 14 11 10 12 14 8 26 100 100 100 100 100 82 79 81 59 56 58 63 77 100 100 100 100 100 100 100 100 100 100 94 95 84 72 71 65
4 2 2 2 2 2 3 8 11 16 14 11 10 15 15 30 76 100 90 98 100 94 82 88 90 78 70 67 68 74 93 100 100 100 100 100 100 100 100 100 100 95 79 69 63
2 2 2 2 3 3 3 5 9 12 17 14 16 20 16 16 20 100 98 88 98 93 100 88 96 100 85 87 73 67 78 93 100 100 100 100 100 100 100 100 100 100 100 97 87
2 2 2 2 2 3 4 4 6 8 20 19 19 15 24 15 15 43 81 100 100 100 100 100 100 89 90 91 96 92 78 75 70 84 99 100 100 100 100 100 100 100 100 100 100
2 2 2 2 2 3 4 4 5 7 20 28 27 25 25 24 19 46 66 92 100 100 100 100 99 93 99 98 89 83 81 73 69 69 76 80 94 100 100 100 100 100 100 98 83
2 2 2 2 2 3 3 4 4 7 21 30 29 32 25 25 24 28 47 70 98 100 100 100 100 100 100 99 81 74 75 78 80 72 62 62 65 82 82 89 98 100 100 99 100
2 2 2 2 2 2 3 4 4 6 20 33 35 40 38 36 35 29 43 68 71 88 97 100 100 100 95 100 100 88 83 82 75 67 61 58 47 89 89 98 100 100 95 87 83
2 2 2 2 2 2 2 3 3 5 17 29 35 40 52 52 52 56 48 44 55 74 89 100 100 100 100 100 100 100 90 74 78 64 56 58 46 67 100 100 100 79 74 86 96
3 2 2 2 2 2 2 4 4 5 25 46 59 63 61 56 57 80 73 67 67 78 90 98 97 100 100 100 100 95 86 75 66 60 46 50 52 82 100 97 100 100 98 90 74
3 2 2 2 2 2 3 4 5 23 39 57 65 54 64 73 81 67 68 79 84 95 98 95 97 95 94 91 80 69 73 66 50 54 70 77 88 100 100 100 67 64 73 77 72
3 3 2 2 2 3 3 5 10 25 64 72 65 79 86 95 85 81 77 63 81 80 85 93 88 84 85 80 72 71 74 81 85 96 96 100 100 100 100 100 100 98 84 64 57
3 3 3 3 3 3 4 8 13 39 44 51 84 96 98 99 90 79 59 62 73 74 90 88 78 80 79 78 80 93 98 96 96 100 96 99 100 100 100 96 87 74 56 45 31
3 4 4 4 4 4 6 9 25 49 57 60 80 79 75 81 77 67 58 59 71 78 76 75 76 74 78 95 100 99 100 98 100 99 96 85 81 72 65 59 55 43 32 25 22
4 5 5 6 6 6 6 12 23 50 69 72 71 76 83 80 55 55 69 84 84 86 94 100 91 83 100 100 100 100 96 94 86 84 72 63 65 55 54 49 37 33 34 22 12
4 6 6 9 7 8 9 16 30 53 63 73 75 93 87 88 98 100 96 89 100 99 100 100 100 100 100 100 97 89 87 67 69 68 75 65 66 54 48 41 43 40 30 17 8
4 6 8 10 11 10 12 22 49 53 64 72 92 89 85 94 95 90 100 97 98 98 100 98 95 94 94 99 89 76 79 66 70 67 98 86 88 71 52 56 50 37 22 12 7
7 7 10 15 16 13 19 26 43 55 73 87 88 86 94 98 86 89 100 100 100 95 86 73 82 93 100 96 83 73 70 62 83 99 78 88 73 57 53 53 37 29 16 9 6
12 8 12 23 29 35 46 54 61 80 87 94 91 91 99 97 88 86 78 61 66 68 73 76 98 100 94 79 76 73 62 100 100 67 66 70 81 57 63 66 37 31 18 10 6
18 13 13 29 43 48 56 73 88 98 96 96 100 94 91 84 74 63 62 67 75 69 69 89 88 77 71 67 79 82 84 100 78 77 71 94 69 68 66 77 40 40 36 31 25
Wind_Speed
55 47 39 34 36 47 58 65 70 77 81 83 83 83 85 83 83 84 80 81 78 78 79 82 83 83 82 79 80 79 74 74 72 75 83 79 74 72 72 72 73 72 74 72 70
63 53 44 37 35 42 55 63 68 75 81 86 85 85 84 85 84 83 86 81 78 80 78 79 81 82 81 80 77 77 76 77 80 79 79 77 73 73 73 77 77 75 76 75 73
66 61 52 43 37 39 49 60 67 72 76 83 83 85 84 85 84 88 83 84 82 81 81 79 79 79 80 80 77 77 77 79 81 82 81 77 76 75 73 73 72 72 74 76 74
72 65 60 53 44 40 44 58 64 69 75 79 82 86 85 83 83 86 85 85 86 84 81 78 78 78 78 78 80 77 76 76 80 82 79 76 76 75 75 76 73 73 73 72 72
77 73 67 59 51 43 44 50 64 69 73 79 82 87 88 82 85 83 87 86 86 84 84 82 80 77 76 75 77 75 75 75 77 76 74 75 76 73 71 72 72 72 71 71 69
79 78 72 62 56 49 43 49 56 69 73 77 82 86 88 86 85 84 82 84 84 84 84 83 83 79 77 75 73 72 74 73 74 76 75 73 76 71 67 69 70 69 68 67 69
76 72 69 68 55 54 46 45 53 62 73 76 79 83 86 89 89 86 85 83 83 86 85 86 84 83 81 78 72 71 72 73 77 79 75 74 73 69 71 70 67 68 68 65 68
77 71 64 59 52 48 50 46 50 56 66 75 77 78 84 85 93 91 86 84 83 82 84 84 84 82 81 81 77 73 74 73 80 77 76 76 71 75 73 69 67 66 65 66 68
80 72 61 51 46 40 43 46 47 54 62 71 74 75 81 85 91 91 86 87 86 83 81 80 81 81 78 79 81 79 75 78 79 75 75 75 73 78 74 70 68 69 70 68 68
79 67 52 43 36 31 34 45 47 51 58 65 69 72 76 84 92 89 87 87 87 83 77 77 77 77 78 79 81 84 81 76 77 78 75 72 72 78 79 73 71 72 73 72 70
77 60 47 38 32 25 26 42 50 50 54 50 59 69 75 81 84 94 88 84 82 79 78 72 71 73 78 77 79 81 83 84 85 82 79 79 74 73 78 75 75 75 77 77 74
77 60 46 37 32 25 27 37 47 46 49 51 59 63 73 74 78 87 87 86 84 79 75 74 74 74 67 69 73 75 79 84 87 87 83 82 78 77 77 76 77 79 78 79 81
72 58 48 38 30 20 23 32 43 44 49 52 53 59 64 69 73 80 82 83 82 79 76 73 74 71 64 64 68 71 74 79 82 86 87 86 83 84 83 84 84 82 84 84 81
73 57 50 39 26 16 22 29 39 46 50 51 49 55 56 58 65 72 74 78 79 84 81 73 75 70 67 68 69 68 67 70 76 84 84 86 82 82 84 84 84 85 84 85 86
69 55 48 34 21 12 17 26 34 39 48 48 49 50 48 52 56 61 69 73 74 78 80 78 74 73 73 71 69 70 67 68 70 74 79 81 79 81 89 89 90 90 89 90 92
65 54 44 28 18 9 11 18 25 35 44 43 42 39 41 45 49 52 57 63 67 70 73 72 74 74 72 72 71 71 72 67 69 69 66 72 71 69 79 87 91 91 91 93 96
62 51 42 27 17 9 1 14 20 27 40 42 39 36 38 40 43 48 54 56 58 60 63 69 69 71 71 71 71 71 71 64 62 59 58 61 62 60 68 79 86 88 89 93 96
59 48 37 24 14 8 13 14 17 37 38 40 38 33 32 31 33 39 48 51 56 57 60 62 63 68 68 68 66 61 59 54 51 50 49 50 50 56 65 73 79 86 92 96 100
55 44 34 21 13 8 15 19 27 39 42 39 32 27 25 23 28 33 37 46 54 57 59 58 60 60 59 57 52 49 47 43 40 39 41 49 53 57 67 75 78 84 93 99 104
54 42 33 22 13 7 19 25 32 38 39 36 34 29 24 24 26 27 33 39 47 51 52 53 49 45 45 39 37 36 36 34 36 40 44 49 56 59 70 72 77 86 94 101 103
52 38 34 22 11 9 20 29 42 40 36 31 29 23 21 21 24 26 29 31 32 33 37 37 37 36 32 28 28 30 34 35 39 40 38 42 39 55 61 67 74 84 91 97 100
48 38 32 24 13 5 13 31 39 41 38 31 27 19 18 16 21 22 26 29 30 31 29 31 29 24 25 27 28 30 28 22 19 18 27 32 37 50 56 64 71 71 80 79 71
48 37 32 26 15 9 14 31 36 37 32 28 21 17 16 24 25 25 27 29 30 30 30 27 25 26 26 27 25 21 14 13 17 20 25 30 40 44 51 61 62 56 60 61 54
49 39 31 28 17 6 15 30 36 31 26 23 19 19 27 29 29 28 27 26 27 26 28 28 25 28 26 24 17 12 11 14 15 14 25 30 34 45 47 48 43 45 46 45 41
52 38 31 28 22 9 12 19 25 24 22 20 21 29 30 29 27 27 27 26 26 27 28 28 34 27 22 18 15 14 16 9 9 15 20 32 37 45 45 35 35 37 33 31 28
50 37 29 23 18 18 19 17 16 16 15 23 28 27 28 27 26 24 23 24 29 33 33 32 25 22 18 16 16 18 15 8 15 17 25 35 46 39 38 36 33 30 24 19 14
45 38 25 17 10 7 11 15 15 17 25 29 29 26 24 22 20 23 26 30 35 33 28 24 21 19 20 20 19 17 11 12 16 20 27 39 42 41 39 36 31 25 27 25 22
Wind_Direction
336 328 313 294 270 250 240 232 231 230 229 230 229 228 228 224 223 224 224 227 229 228 229 232 234 235 235 237 237 239 238 238 238 238 242 244 246 245 247 250 251 252 254 258 259
333 328 318 301 281 259 244 237 231 230 229 228 229 229 228 227 224 223 225 224 225 228 227 230 233 235 234 236 237 236 236 239 239 238 242 244 245 245 245 249 251 252 254 256 257
332 326 319 307 291 268 250 240 234 230 229 229 229 230 227 227 226 223 224 223 225 226 226 229 231 233 233 235 235 235 235 236 240 241 243 246 246 246 246 249 251 253 254 256 258
330 324 317 309 296 276 256 244 235 231 228 227 227 228 227 227 226 227 225 225 225 226 227 228 229 231 232 234 235 234 235 235 239 242 244 247 248 247 249 249 253 255 256 260 261
328 323 315 306 297 281 261 247 238 231 228 226 225 225 226 227 228 227 226 225 226 227 228 228 227 228 230 232 233 235 236 236 238 241 243 246 249 249 250 252 254 257 259 262 264
328 322 315 305 296 284 265 251 240 232 228 227 224 223 225 224 225 229 228 228 226 228 229 231 229 227 230 231 233 233 234 235 235 238 240 243 247 250 253 254 257 259 261 263 266
329 319 310 304 292 282 269 249 244 236 228 226 225 223 223 223 224 224 227 227 228 227 229 229 232 231 231 231 232 234 235 235 236 238 242 245 249 250 250 253 258 260 261 264 268
332 324 313 302 295 278 268 255 240 237 231 226 224 223 221 222 221 225 227 228 227 226 228 229 230 232 233 235 231 232 234 236 241 242 244 247 248 251 252 256 255 257 260 265 267
335 328 318 307 293 276 263 255 241 234 231 227 223 221 220 220 221 224 225 226 229 231 230 231 231 232 232 235 236 235 235 236 239 241 246 248 247 252 253 254 256 257 257 260 265
337 330 322 312 301 280 251 247 241 230 229 227 222 219 219 219 220 222 223 224 227 232 233 231 232 233 234 235 235 234 235 238 241 242 242 247 250 251 254 254 255 257 260 261 263
339 333 325 314 304 285 250 233 235 229 225 225 220 216 217 218 219 218 224 225 226 230 232 233 233 235 234 235 236 236 236 238 239 239 243 245 247 251 254 255 257 259 261 261 263
340 335 330 319 305 281 245 226 228 223 219 219 216 216 216 218 219 218 221 223 226 230 231 234 233 235 236 237 238 239 238 240 240 242 241 245 245 247 252 254 255 258 258 261 266
342 337 335 326 311 277 242 226 219 218 213 213 212 214 216 214 216 217 220 222 222 226 231 232 233 235 235 238 240 242 243 244 244 244 244 246 246 249 251 254 257 259 261 263 267
343 342 341 334 319 282 236 221 213 209 207 208 208 213 214 214 215 217 218 220 223 224 229 231 232 233 235 237 242 245 247 248 248 247 245 245 246 251 254 255 258 260 261 262 263
344 346 344 342 326 285 237 219 208 201 202 201 204 209 210 212 214 214 217 220 223 222 224 228 230 232 236 239 245 249 252 253 251 250 249 250 249 252 255 257 258 258 261 261 262
346 350 347 346 341 308 239 216 200 196 195 196 202 205 208 209 213 214 215 218 220 224 226 228 229 230 236 240 245 249 252 254 254 255 254 254 255 250 254 258 258 258 258 260 262
347 351 353 352 2 11 111 180 180 185 186 190 194 199 205 208 209 212 215 215 217 218 222 225 227 232 235 239 244 249 254 254 255 257 254 252 254 257 255 256 259 261 262 263 263
351 355 3 3 21 79 132 164 162 182 184 188 193 196 201 202 207 215 217 218 218 219 222 225 228 230 235 240 243 249 253 253 251 251 254 259 259 259 261 261 259 261 265 265 265
353 358 9 7 29 94 124 134 167 181 181 186 186 191 196 198 203 207 212 218 218 220 223 227 230 233 238 244 247 244 245 247 250 256 259 261 263 263 262 261 261 262 262 261 263
356 358 7 11 28 83 123 139 170 180 183 181 183 188 192 196 202 206 208 208 215 220 224 227 229 233 233 229 233 237 244 251 254 255 259 260 260 265 265 270 270 268 268 267 267
358 1 8 15 28 88 145 151 168 182 188 182 186 196 201 197 200 195 196 196 199 202 208 215 217 216 218 226 236 240 245 249 253 260 261 262 271 267 271 272 273 274 276 277 278
1 6 13 11 21 72 137 149 169 176 182 183 189 197 198 202 193 186 184 183 187 191 192 204 210 215 219 227 229 237 242 239 248 265 277 281 275 275 278 279 279 285 284 283 280
4 11 17 18 10 51 136 152 161 170 175 179 185 191 189 171 167 167 174 178 183 190 195 203 207 213 214 215 208 209 219 231 247 263 289 306 309 300 299 298 296 291 286 286 285
3 15 21 32 17 54 137 149 159 165 170 180 185 184 168 163 171 170 176 182 189 195 200 207 209 193 185 188 196 209 219 229 248 266 314 329 313 308 308 304 301 306 300 294 289
3 15 23 35 35 62 120 137 150 160 171 176 176 164 164 170 177 179 184 190 196 198 199 182 173 166 177 191 203 194 204 228 275 297 322 328 329 321 320 317 324 323 315 308 299
4 12 26 39 63 97 121 135 147 155 165 168 164 168 174 179 181 183 191 188 180 175 167 163 163 174 187 189 192 209 204 228 276 286 327 338 342 336 340 338 341 347 0 359 360
0 7 21 46 48 98 132 154 165 172 167 170 172 176 177 177 177 178 172 172 167 162 159 162 177 187 186 186 190 198 214 250 287 320 331 339 348 346 350 349 355 14 32 39 46